Rochelle, IL

12:49 AM CDT on March 25, 2017 (GMT -0500)
Rochelle

Weather History for KRPJ - June, 2014

Change the Weather History Date:

Monday, June 30, 2014

  Actual Average (KRFD) Record (KRFD)
Temperature  
Mean Temperature 73 °F -  
Max Temperature 84 °F 82 °F 102 °F (1931)
Min Temperature 63 °F 61 °F 42 °F (1943)
Cooling Degree Days 8    
Growing Degree Days 23 (Base 50)    
Moisture  
Dew Point 68 °F    
Average Humidity 88    
Maximum Humidity 95    
Minimum Humidity 70    
Precipitation  
Precipitation 1.96 in - - ()
Sea Level Pressure  
Sea Level Pressure 29.80 in    
Wind  
Wind Speed 10 mph (South)    
Max Wind Speed 32 mph    
Max Gust Speed 44 mph    
Visibility 8 miles    
Events Rain , Thunderstorm    
Averages and records for this station are not official NWS values.
T = Trace of Precipitation, MM = Missing Value Source: NWS Daily Summary

Daily Weather History Graph

Daily Weather History Graph

Search for Another Location

Airport or City:

Trip Planner

Search our weather history database for the weather conditions in past years. The results will help you decide how hot, cold, wet, or windy it might be!

Date:

Astronomy

Jun. 30, 2014 Rise Set
Actual Time 5:24 AM CDT 8:35 PM CDT
Civil Twilight 4:50 AM CDT 9:09 PM CDT
Nautical Twilight 4:06 AM CDT 9:53 PM CDT
Astronomical Twilight 3:13 AM CDT 10:46 PM CDT
Moon 8:40 AM CDT (6/30) 10:24 PM CDT (6/30)
Length of Visible Light 16h 19m
Length of Day
15h 11m
Waxing Crescent, 10% of the Moon is Illuminated
Jun 30
Waxing Crescent
Jul 5
First Quarter
Jul 12
Full
Jul 18
Last Quarter
Jul 26
New

Hourly Weather History & Observations

Time (CDT) Temp. Heat Index Dew Point Humidity Pressure Visibility Wind Dir Wind Speed Gust Speed Precip Events Conditions
12:15 AM 75.2 °F - 72.5 °F 91% 29.89 in 7.0 mi SSW 9.2 mph - N/A   Mostly Cloudy
12:35 AM 75.2 °F - 72.5 °F 91% 29.89 in 7.0 mi South 6.9 mph - N/A Thunderstorm Overcast
12:55 AM 75.0 °F - 72.3 °F 91% 29.88 in 7.0 mi SSE 9.2 mph - N/A Rain , Thunderstorm Light Thunderstorms and Rain
1:15 AM 74.7 °F - 72.1 °F 92% 29.88 in 5.0 mi South 9.2 mph - 0.01 in Rain , Thunderstorm Light Thunderstorms and Rain
1:55 AM 67.3 °F - 64.8 °F 92% 29.89 in 1.8 mi SSW 19.6 mph 35.7 mph 0.37 in Rain , Thunderstorm Heavy Thunderstorms and Rain
2:15 AM 66.6 °F - 64.8 °F 94% 29.87 in 7.0 mi South 9.2 mph - 0.02 in Rain , Thunderstorm Thunderstorms and Rain
2:35 AM 66.7 °F - 64.9 °F 94% 29.86 in 10.0 mi South 5.8 mph - 0.03 in Rain , Thunderstorm Rain
2:55 AM 67.6 °F - 65.8 °F 94% 29.88 in 7.0 mi SW 12.7 mph - 0.08 in Rain , Thunderstorm Heavy Thunderstorms and Rain
3:15 AM 68.5 °F - 66.7 °F 94% 29.91 in 2.5 mi WSW 13.8 mph - 0.14 in Rain , Thunderstorm Thunderstorms and Rain
3:55 AM 68.0 °F - 66.4 °F 95% 29.88 in 4.0 mi SW 5.8 mph - 0.45 in Rain , Thunderstorm Thunderstorms and Rain
4:15 AM 68.0 °F - 66.6 °F 95% 29.87 in 7.0 mi SE 8.1 mph - 0.02 in Rain , Thunderstorm Light Thunderstorms and Rain
4:35 AM 68.0 °F - 66.6 °F 95% 29.88 in 10.0 mi South 9.2 mph - 0.04 in Thunderstorm Thunderstorm
5:15 AM 66.9 °F - 65.3 °F 95% 29.86 in 10.0 mi SSE 10.4 mph - N/A   Scattered Clouds
5:35 AM 66.9 °F - 65.5 °F 95% 29.87 in 10.0 mi SSE 9.2 mph - N/A   Clear
6:15 AM 67.3 °F - 65.7 °F 95% 29.88 in 10.0 mi South 5.8 mph - N/A   Scattered Clouds
6:35 AM 68.0 °F - 65.8 °F 93% 29.88 in 10.0 mi South 5.8 mph - N/A   Scattered Clouds
6:55 AM 68.4 °F - 66.2 °F 93% 29.89 in 10.0 mi South 8.1 mph - N/A   Mostly Cloudy
7:15 AM 68.9 °F - 66.4 °F 92% 29.86 in 10.0 mi South 9.2 mph - N/A   Mostly Cloudy
7:35 AM 70.9 °F - 67.5 °F 89% 29.85 in 10.0 mi South 12.7 mph - N/A   Mostly Cloudy
7:55 AM 71.4 °F - 68.0 °F 89% 29.83 in 10.0 mi South 15.0 mph - N/A   Scattered Clouds
8:15 AM 72.9 °F - 68.7 °F 87% 29.84 in 10.0 mi South 15.0 mph - N/A   Clear
8:35 AM 73.9 °F - 68.5 °F 83% 29.85 in 10.0 mi South 18.4 mph 24.2 mph N/A   Clear
8:55 AM 75.2 °F - 69.1 °F 81% 29.86 in 10.0 mi South 15.0 mph 19.6 mph N/A   Clear
9:15 AM 73.0 °F - 68.7 °F 86% 29.84 in 10.0 mi South 17.3 mph 20.7 mph N/A   Clear
9:35 AM 72.7 °F - 68.9 °F 88% 29.85 in 10.0 mi South 11.5 mph 17.3 mph N/A   Clear
9:55 AM 72.5 °F - 68.9 °F 88% 29.84 in 10.0 mi South 6.9 mph 10.4 mph N/A   Clear
10:15 AM 72.3 °F - 69.1 °F 89% 29.83 in 10.0 mi South 8.1 mph - N/A   Clear
10:35 AM 73.0 °F - 69.4 °F 88% 29.82 in 10.0 mi South 6.9 mph - N/A   Clear
10:55 AM 73.8 °F - 70.0 °F 88% 29.83 in 10.0 mi SSW 8.1 mph - N/A   Clear
11:15 AM 74.7 °F - 70.2 °F 86% 29.84 in 10.0 mi SSW 10.4 mph - N/A   Clear
11:35 AM 75.7 °F - 70.5 °F 84% 29.81 in 10.0 mi SSW 9.2 mph 16.1 mph N/A   Clear
11:55 AM 77.4 °F - 71.4 °F 82% 29.81 in 10.0 mi SSW 9.2 mph - N/A   Clear
12:15 PM 78.4 °F - 72.0 °F 80% 29.80 in 10.0 mi SSW 8.1 mph - N/A   Clear
12:35 PM 79.7 °F - 73.2 °F 80% 29.79 in 10.0 mi South 8.1 mph - N/A   Clear
12:55 PM 81.5 °F 87.2 °F 73.9 °F 78% 29.79 in 10.0 mi SSW 11.5 mph - N/A   Clear
1:15 PM 82.8 °F 89.2 °F 74.3 °F 75% 29.78 in 10.0 mi SSW 9.2 mph - N/A   Clear
1:35 PM 82.6 °F 89.4 °F 74.7 °F 77% 29.78 in 10.0 mi SSW 12.7 mph 17.3 mph N/A   Mostly Cloudy
1:55 PM 82.9 °F 90.2 °F 75.0 °F 77% 29.76 in 10.0 mi South 11.5 mph - N/A   Mostly Cloudy
2:15 PM 83.3 °F 91.1 °F 75.4 °F 77% 29.73 in 10.0 mi SSE 13.8 mph - N/A   Scattered Clouds
2:35 PM 83.3 °F 89.6 °F 73.6 °F 72% 29.76 in 10.0 mi SSW 10.4 mph - N/A   Scattered Clouds
2:55 PM 83.8 °F 90.1 °F 73.2 °F 70% 29.75 in 10.0 mi South 12.7 mph - N/A   Scattered Clouds
3:15 PM 83.5 °F 89.7 °F 73.2 °F 71% 29.74 in 10.0 mi South 10.4 mph 16.1 mph N/A   Clear
3:35 PM 82.4 °F 87.7 °F 72.7 °F 72% 29.74 in 10.0 mi South 10.4 mph - N/A   Clear
3:55 PM 81.7 °F 86.7 °F 72.5 °F 74% 29.74 in 10.0 mi SSW 9.2 mph - N/A   Clear
4:15 PM 81.1 °F 86.2 °F 73.4 °F 77% 29.75 in 10.0 mi SSW 5.8 mph - N/A   Clear
4:35 PM 80.6 °F 86.0 °F 74.8 °F 83% 29.78 in 7.0 mi West 6.9 mph - N/A   Scattered Clouds
4:55 PM 79.7 °F - 74.8 °F 85% 29.76 in 7.0 mi Calm Calm - N/A Rain Light Rain
5:15 PM 79.3 °F - 75.6 °F 88% 29.77 in 7.0 mi Calm Calm - N/A   Light Drizzle
5:35 PM 73.6 °F - 64.6 °F 73% 29.76 in 10.0 mi NW 23.0 mph 35.7 mph N/A Rain , Thunderstorm Light Thunderstorms and Rain
5:55 PM 68.2 °F - 65.3 °F 90% 29.80 in 1.5 mi WNW 25.3 mph 43.7 mph 0.23 in Rain , Thunderstorm Heavy Thunderstorms and Rain
6:15 PM 68.4 °F - 65.8 °F 92% 29.83 in 5.0 mi WNW 10.4 mph - 0.07 in Rain , Thunderstorm Thunderstorms and Rain
6:35 PM 68.7 °F - 65.8 °F 90% 29.76 in 7.0 mi ENE 8.1 mph - 0.09 in Rain , Thunderstorm Thunderstorms and Rain
6:55 PM 68.9 °F - 66.4 °F 92% 29.72 in 10.0 mi East 6.9 mph - 0.09 in Rain , Thunderstorm Light Thunderstorms and Rain
7:15 PM 68.0 °F - 65.7 °F 92% 29.65 in 10.0 mi ESE 13.8 mph - N/A Rain Light Rain
7:35 PM 68.0 °F - 65.7 °F 92% 29.64 in 10.0 mi East 5.8 mph - N/A Rain Light Rain
7:55 PM 68.5 °F - 66.2 °F 92% 29.69 in 10.0 mi North 10.4 mph - 0.01 in Rain Light Rain
8:15 PM 68.4 °F - 66.2 °F 93% 29.69 in 10.0 mi NE 11.5 mph - N/A   Mostly Cloudy
8:35 PM 68.4 °F - 66.4 °F 93% 29.66 in 10.0 mi ENE 12.7 mph 16.1 mph N/A Thunderstorm Overcast
8:55 PM 68.9 °F - 65.5 °F 89% 29.80 in 5.0 mi NNW 32.2 mph 41.4 mph 0.10 in Rain , Thunderstorm Heavy Thunderstorms and Rain
9:15 PM 63.7 °F - 62.1 °F 94% 29.79 in 1.8 mi North 18.4 mph 24.2 mph 0.39 in Rain , Thunderstorm Heavy Thunderstorms and Rain
9:35 PM 64.0 °F - 62.6 °F 95% 29.79 in 5.0 mi SE 6.9 mph 10.4 mph 0.49 in Rain , Thunderstorm Thunderstorms and Rain
9:55 PM 63.3 °F - 61.7 °F 94% 29.76 in 3.0 mi SE 8.1 mph - 0.57 in Rain , Thunderstorm Thunderstorms and Rain
10:15 PM 63.5 °F - 62.1 °F 95% 29.70 in 7.0 mi East 13.8 mph - 0.02 in Rain , Thunderstorm Thunderstorms and Rain
10:35 PM 64.6 °F - 63.0 °F 94% 29.71 in 10.0 mi South 8.1 mph 19.6 mph 0.02 in Rain , Thunderstorm Light Thunderstorms and Rain
11:15 PM 64.6 °F - 63.0 °F 94% 29.69 in 10.0 mi SSE 6.9 mph - N/A Rain , Thunderstorm Light Thunderstorms and Rain
11:35 PM 64.9 °F - 63.1 °F 94% 29.72 in 10.0 mi South 11.5 mph - N/A   Drizzle
11:55 PM 64.9 °F - 63.1 °F 94% 29.69 in 10.0 mi SSE 12.7 mph - N/A Thunderstorm Unknown